Gallup, NM

1:14 PM MDT on July 25, 2016 (GMT -0600)
Gallup Municipal

Weather History for KGUP - May, 2013

Change the Weather History Date:

Friday, May 3, 2013

  Actual Average Record
Temperature  
Mean Temperature 45 °F -  
Max Temperature 72 °F 68 °F 84 °F (2000)
Min Temperature 19 °F 30 °F 16 °F (2011)
Degree Days  
Heating Degree Days 20    
Moisture  
Dew Point 0 °F    
Average Humidity 16    
Maximum Humidity 32    
Minimum Humidity 6    
Precipitation  
Precipitation 0.00 in - - ()
Sea Level Pressure  
Sea Level Pressure 30.06 in    
Wind  
Wind Speed 3 mph (North)    
Max Wind Speed 12 mph    
Max Gust Speed 17 mph    
Visibility 10 miles    
Events      
Averages and records for this station are not official NWS values.
T = Trace of Precipitation, MM = Missing Value Source: NWS Daily Summary

Daily Weather History Graph

Daily Weather History Graph

Search for Another Location

Airport or City:

Trip Planner

Search our weather history database for the weather conditions in past years. The results will help you decide how hot, cold, wet, or windy it might be!

Date:

Astronomy

May. 03, 2013 Rise Set
Actual Time 6:21 AM MDT 8:03 PM MDT
Civil Twilight 5:53 AM MDT 8:30 PM MDT
Nautical Twilight 5:20 AM MDT 9:04 PM MDT
Astronomical Twilight 4:45 AM MDT 9:39 PM MDT
Moon 2:34 AM MDT (5/3) 2:13 PM MDT (5/3)
Length of Visible Light 14h 37m
Length of Day
13h 42m
Last Quarter, 36% of the Moon is Illuminated
May 3
Last Quarter
May 9
New
May 17
First Quarter
May 24
Full
May 31
Last Quarter

Hourly Weather History & Observations

Time (MDT) Temp. Windchill Dew Point Humidity Pressure Visibility Wind Dir Wind Speed Gust Speed Precip Events Conditions
12:53 AM 30.0 °F - -5.1 °F 22% 30.29 in 10.0 mi Calm Calm - N/A   Clear
1:53 AM 30.0 °F 26.5 °F -5.1 °F 22% 30.25 in 10.0 mi East 3.5 mph - N/A   Clear
2:53 AM 26.1 °F - -6.0 °F 25% 30.26 in 10.0 mi Calm Calm - N/A   Clear
3:53 AM 23.0 °F - -6.0 °F 28% 30.26 in 10.0 mi Calm Calm - N/A   Clear
4:53 AM 21.9 °F - -6.0 °F 29% 30.27 in 10.0 mi Calm Calm - N/A   Clear
5:53 AM 19.0 °F 13.9 °F -7.1 °F 31% 30.30 in 10.0 mi ENE 3.5 mph - N/A   Clear
6:53 AM 21.0 °F - -5.1 °F 32% 30.30 in 10.0 mi Calm Calm - N/A   Clear
7:53 AM 37.0 °F 33.3 °F 5.0 °F 26% 30.21 in 10.0 mi ENE 4.6 mph - N/A   Clear
8:53 AM 44.1 °F 42.5 °F 7.0 °F 22% 30.17 in 10.0 mi North 3.5 mph - N/A   Clear
9:53 AM 48.9 °F - 8.1 °F 19% 30.16 in 10.0 mi Calm Calm - N/A   Clear
10:53 AM 57.0 °F - 7.0 °F 14% 30.10 in 10.0 mi NE 3.5 mph - N/A   Clear
11:53 AM 59.0 °F - 3.0 °F 11% 30.06 in 10.0 mi West 5.8 mph - N/A   Clear
12:53 PM 64.0 °F - 3.0 °F 9% 30.04 in 10.0 mi Calm Calm - N/A   Clear
1:53 PM 68.0 °F - 3.0 °F 8% 29.97 in 10.0 mi West 11.5 mph 16.1 mph N/A   Clear
2:53 PM 68.0 °F - 1.0 °F 7% 29.96 in 10.0 mi Variable 6.9 mph - N/A   Clear
3:53 PM 71.1 °F - -0.0 °F 6% 29.91 in 10.0 mi WNW 9.2 mph - N/A   Clear
4:53 PM 70.0 °F - -0.0 °F 6% 29.89 in 10.0 mi Variable 6.9 mph - N/A   Clear
5:53 PM 71.1 °F - -0.0 °F 6% 29.89 in 10.0 mi South 5.8 mph 17.3 mph N/A   Clear
6:53 PM 69.1 °F - -0.0 °F 6% 29.88 in 10.0 mi SSW 10.4 mph - N/A   Clear
7:53 PM 64.0 °F - -0.0 °F 8% 29.81 in 10.0 mi NW 11.5 mph - N/A   Clear
8:53 PM 59.0 °F - -0.0 °F 9% 29.82 in 10.0 mi NNE 8.1 mph - N/A   Clear
9:53 PM 43.0 °F 41.3 °F -0.9 °F 16% 29.91 in 10.0 mi South 3.5 mph - N/A   Clear
10:53 PM 36.0 °F - -5.1 °F 17% 29.88 in 10.0 mi Calm Calm - N/A   Clear
11:53 PM 44.1 °F - -0.9 °F 15% 29.83 in 10.0 mi Calm Calm - N/A   Clear